Weather History for Orange, MA

Change the Weather History Date:

Monday, November 19, 2012

  Actual Average Record
Temperature  
Mean Temperature 32 °F -  
Max Temperature 48 °F 44 °F 62 °F (2003)
Min Temperature 17 °F 26 °F 12 °F (1997)
Degree Days  
Heating Degree Days 32    
Moisture  
Dew Point 23 °F    
Average Humidity 81    
Maximum Humidity 93    
Minimum Humidity 44    
Precipitation  
Precipitation 0.00 in - - ()
Sea Level Pressure  
Sea Level Pressure 30.49 in    
Wind  
Wind Speed 0 mph (East)    
Max Wind Speed 4 mph    
Max Gust Speed -    
Visibility 8 miles    
Events      
Averages and records for this station are not official NWS values.
T = Trace of Precipitation, MM = Missing Value Source: NWS Daily Summary

Daily Weather History Graph

Daily Weather History Graph

Search for Another Location

Airport:

Trip Planner

Search our weather history database for the weather conditions in past years. The results will help you decide how hot, cold, wet, or windy it might be!

Date:

Astronomy

Nov. 19, 2012 Rise Set
Actual Time 6:45 AM EST 4:22 PM EST
Civil Twilight 6:15 AM EST 4:53 PM EST
Nautical Twilight 5:40 AM EST 5:28 PM EST
Astronomical Twilight 5:07 AM EST 6:01 PM EST
Moon 11:44 AM EST (11/19) 10:50 PM EST (11/19)
Length of Visible Light 10h 38m
Length of Day
9h 37m
Waxing Crescent, 40% of the Moon is Illuminated
Nov 19
Waxing Crescent
Nov 20
First Quarter
Nov 28
Full
Dec 6
Last Quarter
Dec 13
New

Hourly Weather History & Observations

Time (EST) Temp. Dew Point Humidity Pressure Visibility Wind Dir Wind Speed Gust Speed Precip Events Conditions
12:52 AM 21.9 °F 19.9 °F 92% 30.63 in 5.0 mi Calm Calm - N/A   Clear
1:30 AM 21.2 °F 19.4 °F 93% 30.61 in 2.0 mi Calm Calm - N/A   Clear
1:52 AM 21.0 °F 19.0 °F 92% 30.63 in 2.0 mi Calm Calm - N/A   Clear
2:06 AM 19.4 °F 17.6 °F 93% 30.61 in 6.0 mi Calm Calm - N/A   Clear
2:52 AM 19.9 °F 18.0 °F 92% 30.61 in 6.0 mi Calm Calm - N/A   Clear
3:52 AM 19.0 °F 17.1 °F 92% 30.59 in 7.0 mi Calm Calm - N/A   Clear
4:52 AM 19.0 °F 16.0 °F 88% 30.59 in 8.0 mi Calm Calm - N/A   Clear
5:52 AM 17.1 °F 14.0 °F 88% 30.60 in 9.0 mi Calm Calm - N/A   Partly Cloudy
6:04 AM 19.4 °F 15.8 °F 86% 30.56 in 9.0 mi Calm Calm - N/A   Mostly Cloudy
6:43 AM 19.4 °F 17.6 °F 93% 30.56 in 9.0 mi Calm Calm - N/A   Scattered Clouds
6:52 AM 19.0 °F 16.0 °F 88% 30.59 in 8.0 mi Calm Calm - N/A   Partly Cloudy
7:52 AM 23.0 °F 19.9 °F 88% 30.57 in 7.0 mi Calm Calm - N/A   Clear
8:52 AM 28.9 °F 26.1 °F 89% 30.56 in 10.0 mi Calm Calm - N/A   Clear
9:52 AM 37.0 °F 27.0 °F 67% 30.54 in 10.0 mi Calm Calm - N/A   Clear
10:52 AM 42.1 °F 28.9 °F 60% 30.50 in 10.0 mi Calm Calm - N/A   Clear
11:52 AM 44.1 °F 30.0 °F 58% 30.46 in 10.0 mi Calm Calm - N/A   Clear
12:52 PM 46.0 °F 28.9 °F 51% 30.43 in 10.0 mi Calm Calm - N/A   Clear
1:52 PM 48.0 °F 28.9 °F 48% 30.40 in 10.0 mi Variable 3.5 mph - N/A   Clear
2:52 PM 48.9 °F 28.0 °F 44% 30.39 in 10.0 mi Calm Calm - N/A   Clear
3:52 PM 46.9 °F 27.0 °F 46% 30.38 in 10.0 mi East 3.5 mph - N/A   Clear
4:52 PM 36.0 °F 28.0 °F 73% 30.38 in 10.0 mi Calm Calm - N/A   Clear
5:52 PM 30.9 °F 27.0 °F 85% 30.39 in 10.0 mi Calm Calm - N/A   Clear
6:52 PM 28.9 °F 26.1 °F 89% 30.38 in 10.0 mi Calm Calm - N/A   Clear
7:52 PM 28.0 °F 26.1 °F 92% 30.36 in 10.0 mi Calm Calm - N/A   Clear
8:52 PM 26.1 °F 24.1 °F 92% 30.35 in 10.0 mi Calm Calm - N/A   Clear
9:52 PM 25.0 °F 23.0 °F 92% 30.33 in 9.0 mi Calm Calm - N/A   Clear
10:52 PM 25.0 °F 23.0 °F 92% 30.31 in 9.0 mi Calm Calm - N/A   Clear
11:52 PM 21.9 °F 19.9 °F 92% 30.29 in 7.0 mi Calm Calm - N/A   Clear